Temperature
19 17 17 17 18 18 18 18 17 18 18 18 18 18 18 19 19 19 19 19 19 19 19 19 19 19 18 18 18 18 17 17 17 17 17 16 16 16 16 16 16 16 15 15
17 17 18 19 19 19 18 18 17 18 18 19 18 18 18 18 19 19 19 19 19 19 19 19 19 19 18 18 18 18 17 17 17 17 17 16 16 16 16 15 15 15 15 15
18 18 20 20 19 19 18 18 18 17 18 18 18 18 18 18 19 19 19 19 19 19 19 19 19 19 19 18 18 18 18 17 17 17 17 16 16 16 16 15 15 15 15 15
19 19 20 19 19 19 18 19 19 18 17 17 18 17 17 17 18 18 19 19 19 19 19 19 19 19 19 18 18 18 18 17 17 17 17 16 16 16 16 16 15 15 15 15
19 19 19 19 20 20 19 20 19 18 17 17 17 17 17 17 17 17 18 19 19 19 19 19 19 19 19 18 18 18 18 17 17 17 17 16 16 16 16 15 15 15 15 15
20 20 20 20 20 20 20 19 18 17 16 17 17 17 17 17 18 18 18 19 19 20 19 19 19 19 19 18 18 18 18 17 17 17 17 16 16 16 16 16 15 15 15 15
20 20 21 21 20 20 19 17 17 17 16 17 18 17 17 18 19 19 19 19 20 20 20 19 19 19 19 18 18 18 18 17 17 17 17 16 16 16 16 16 15 15 15 15
19 18 20 21 20 19 19 18 17 17 17 17 18 17 18 20 20 20 20 20 20 20 20 20 19 19 19 19 18 18 18 17 17 17 17 16 16 16 16 16 15 15 15 15
19 19 21 21 21 20 19 18 17 17 18 17 17 18 19 20 19 19 20 20 20 20 20 20 19 19 19 19 18 18 18 18 17 17 17 17 16 16 16 16 15 15 15 15
20 19 21 22 21 21 20 18 16 17 17 17 18 19 19 20 19 19 19 19 20 20 20 20 20 19 19 19 19 18 18 18 17 17 17 16 16 16 16 16 16 15 15 15
20 19 20 21 20 20 20 19 18 16 17 17 18 18 20 20 19 19 19 20 20 20 20 20 20 20 19 19 19 18 18 18 17 17 17 17 16 16 16 16 16 15 15 15
20 17 18 19 20 20 20 20 18 17 17 17 17 18 21 20 20 20 20 20 20 20 21 20 20 19 19 19 18 18 18 18 17 17 17 17 16 16 16 16 15 15 15 15
20 18 18 18 19 20 20 20 19 17 17 17 17 19 20 19 19 20 20 20 20 20 20 20 20 19 19 19 19 18 18 18 17 17 17 17 16 16 16 16 15 15 15 15
20 18 18 19 19 19 20 21 20 19 17 18 18 19 20 19 19 19 20 20 20 20 20 20 20 19 19 19 19 18 18 18 17 17 17 17 16 16 16 16 15 15 15 15
19 19 19 19 20 20 20 21 21 20 19 19 20 20 20 19 19 20 20 20 20 20 20 20 20 19 19 19 19 18 18 18 17 17 17 17 16 16 16 15 15 15 15 15
19 20 20 20 21 21 21 21 21 21 21 20 20 20 20 21 21 20 20 20 20 20 20 20 20 19 19 19 19 18 18 18 18 17 17 17 16 16 16 15 15 15 15 14
18 19 19 18 20 21 20 21 21 21 21 21 20 20 20 20 20 20 21 20 20 21 20 20 20 20 20 19 19 19 18 18 18 17 17 17 16 16 16 16 15 15 15 15
18 17 16 18 20 20 20 21 21 21 21 21 21 20 20 21 21 22 22 21 21 21 21 21 20 20 20 19 19 19 18 18 18 17 17 17 16 16 16 16 15 15 15 15
18 18 17 17 18 19 20 22 22 21 21 21 21 20 21 21 21 20 21 22 22 21 21 21 20 20 20 19 19 18 18 18 17 17 17 17 16 16 16 16 16 15 15 15
17 17 17 17 19 19 20 22 23 21 20 21 21 20 20 20 17 18 21 21 21 21 21 20 20 20 19 19 19 18 18 18 17 17 17 17 16 16 16 16 16 15 15 15
19 17 17 17 17 18 19 21 22 20 19 21 21 21 21 20 20 21 21 21 21 21 21 20 20 20 19 19 19 18 18 18 18 17 17 17 16 16 16 16 15 15 15 14
18 17 16 15 17 18 20 21 20 19 21 21 22 22 22 22 21 21 21 21 21 20 20 20 20 19 19 19 18 18 18 18 17 17 17 16 16 16 16 15 15 15 14 14
17 17 16 16 17 19 21 21 22 22 22 22 22 22 22 21 21 21 21 21 20 20 20 19 19 19 19 18 18 18 18 17 17 17 16 16 16 16 15 15 15 14 14 14
17 17 16 17 18 19 21 21 22 22 22 22 22 21 21 21 21 21 20 20 20 19 19 19 19 19 18 18 18 18 18 17 17 16 16 16 15 15 15 15 14 14 14 14
18 17 16 16 18 19 20 21 21 21 21 21 21 21 21 21 20 20 20 20 19 19 19 19 18 18 18 18 17 17 17 17 16 16 16 15 15 15 14 14 14 14 14 13
16 17 16 16 18 17 19 20 21 21 21 20 20 20 20 20 20 19 19 19 19 19 18 18 18 18 18 17 17 17 16 16 16 16 15 15 15 14 14 14 13 13 13 13
Wind_Speed
2 4 2 3 3 5 6 5 4 1 1 2 5 5 6 6 6 8 7 7 8 8 6 7 8 8 7 6 7 6 6 5 5 4 4 3 3 2 3 5 8 10 10 10
5 2 2 3 4 5 7 6 3 2 0 2 3 2 4 5 7 9 10 9 9 7 6 6 7 7 7 7 7 6 6 5 4 3 3 3 3 2 2 3 7 10 10 9
3 2 3 5 5 5 5 6 6 5 1 2 4 1 3 3 4 6 9 9 9 11 10 9 8 7 7 7 7 7 5 5 5 5 4 4 4 3 3 3 3 5 9 10
2 1 3 4 3 4 2 6 8 7 4 1 2 2 6 6 5 8 9 10 10 10 9 8 9 8 7 7 7 7 6 5 5 6 6 6 4 3 1 1 1 3 7 7
1 2 3 2 2 4 4 6 6 5 3 1 1 2 6 4 7 11 12 12 12 11 11 10 9 9 8 7 7 7 6 5 5 5 6 6 4 3 1 1 2 3 4 5
1 2 2 3 2 4 6 6 5 4 3 0 4 4 6 6 11 10 11 12 12 12 11 9 8 8 6 6 6 7 7 5 5 6 6 7 7 5 4 3 2 1 2 2
3 1 1 3 4 2 4 5 3 2 2 4 4 4 8 9 10 13 13 14 12 11 11 10 10 9 8 8 7 7 7 6 5 6 6 6 7 7 6 4 3 2 1 1
2 2 3 3 5 5 3 6 5 4 3 3 1 4 7 7 8 10 10 11 11 12 11 12 12 10 10 9 9 8 8 6 6 6 6 5 6 5 4 4 4 4 3 2
4 3 3 5 4 7 4 3 5 4 1 1 3 5 6 2 5 8 9 10 12 13 13 12 11 10 10 10 10 9 9 7 6 6 6 5 5 5 5 4 4 3 2 2
5 2 3 2 3 1 5 6 5 3 2 1 3 3 4 4 6 8 10 11 11 12 12 12 11 11 10 10 9 8 9 8 6 6 6 5 5 5 5 5 4 4 3 3
4 4 1 1 4 5 2 2 3 3 3 3 2 6 5 9 9 11 11 12 12 13 13 12 11 11 10 9 9 8 8 7 6 6 5 6 5 5 5 5 5 4 3 3
4 5 2 5 5 5 5 5 6 4 3 3 3 6 6 7 8 9 10 10 11 12 11 11 11 10 9 9 9 9 8 7 7 6 6 6 6 5 5 5 5 5 4 4
5 6 3 4 4 1 3 5 6 5 3 3 3 6 4 2 5 7 9 9 9 9 9 8 9 10 10 9 9 9 8 8 7 7 7 6 5 5 5 5 5 5 5 4
6 5 6 7 7 5 4 5 5 6 3 3 5 6 4 3 6 6 7 8 9 9 10 9 9 10 10 9 9 9 8 8 8 7 7 7 7 6 6 5 5 5 5 5
5 4 5 7 7 5 6 7 7 6 7 7 6 6 8 8 10 9 9 9 9 9 9 10 11 10 9 8 8 8 8 8 8 8 8 8 7 6 6 6 5 5 5 5
4 3 1 3 5 4 5 7 8 8 6 6 5 6 7 5 5 6 8 10 10 11 11 11 11 10 10 10 9 8 8 8 8 9 8 7 7 7 7 6 6 5 5 4
4 5 2 3 5 1 4 8 8 6 6 7 7 8 4 4 7 9 10 11 11 11 11 11 11 11 11 11 10 10 9 7 8 8 7 7 7 7 7 7 7 6 5 5
8 6 4 2 2 2 7 5 5 5 4 5 5 5 7 8 8 7 8 10 10 10 10 10 10 10 9 9 8 8 7 8 8 7 7 7 8 7 6 6 7 6 5 5
7 8 5 4 2 5 7 4 3 5 2 2 4 4 5 5 5 1 3 7 10 10 10 10 10 9 9 9 9 8 8 8 8 8 8 8 8 8 7 7 7 6 5 5
4 6 6 4 4 5 7 6 1 6 1 5 3 6 6 7 4 4 4 4 5 5 6 7 7 7 8 8 9 9 9 9 9 9 9 8 8 8 8 8 7 5 5 5
2 3 5 5 5 7 8 5 3 5 6 4 3 6 7 6 6 5 4 4 5 5 5 6 7 8 8 8 9 10 9 10 10 8 7 7 7 7 7 6 5 5 5 5
7 6 6 6 5 8 5 3 6 7 4 3 4 5 6 4 3 4 4 4 4 4 5 6 7 7 6 8 10 10 10 9 6 7 7 7 7 6 6 6 5 5 6 5
6 8 6 8 7 6 3 5 5 6 5 4 4 4 5 5 4 4 4 4 4 4 5 5 6 6 5 7 9 10 9 6 7 7 7 7 6 5 6 6 6 4 5 5
3 3 4 2 3 2 1 2 3 4 5 4 5 5 5 4 4 4 4 4 3 3 4 4 5 5 5 6 7 8 7 7 8 8 7 6 6 5 5 5 5 5 5 5
4 3 4 2 2 1 2 1 3 3 4 5 4 4 5 5 4 4 4 4 4 3 3 5 6 6 6 5 5 5 6 8 8 7 6 6 6 6 5 5 5 6 7 8
3 5 6 6 7 6 5 4 4 5 4 4 5 3 3 4 4 4 4 4 4 4 3 4 4 4 4 5 5 4 6 8 8 6 6 5 5 5 4 4 3 4 5 8
Wind_Direction
39 74 112 195 184 163 149 129 123 178 241 131 150 167 184 178 166 165 171 169 161 164 174 155 146 142 133 125 123 126 123 124 117 105 99 89 71 50 43 52 57 57 59 63
52 68 194 157 137 135 131 123 124 116 151 128 140 190 204 190 190 183 183 180 171 167 167 157 148 146 147 145 139 135 138 136 132 131 132 128 119 90 63 47 50 52 58 63
133 203 150 119 125 129 143 152 158 156 106 56 108 344 238 225 199 188 186 181 179 177 177 169 158 156 152 153 154 153 152 142 134 128 109 90 68 51 38 34 30 39 62 69
85 210 133 124 145 142 163 170 148 146 129 203 160 214 253 218 209 201 194 187 189 186 182 175 165 163 164 165 156 149 147 143 136 127 126 130 129 133 171 160 65 43 57 68
161 151 130 134 177 149 168 155 142 145 135 95 200 187 269 202 212 213 203 196 194 190 186 182 175 171 167 159 152 148 143 140 135 130 136 132 130 144 145 110 78 50 38 56
161 180 170 174 143 127 119 94 74 63 79 269 215 187 259 214 211 205 201 195 192 189 185 179 175 162 155 150 148 147 144 147 143 137 138 141 143 141 130 126 111 64 40 34
11 346 222 134 97 64 102 104 81 32 356 259 215 199 248 231 211 200 196 195 191 185 178 174 173 169 163 160 159 155 150 153 152 145 148 155 154 151 153 159 155 141 113 84
152 249 222 177 158 165 175 138 150 170 219 279 238 233 260 248 203 190 187 185 181 182 179 179 181 177 170 168 166 162 159 162 164 160 163 165 158 152 160 168 164 163 169 176
171 228 230 190 167 145 140 159 169 141 198 272 269 275 305 17 150 168 171 173 180 183 181 180 180 179 175 175 176 173 167 165 170 170 165 168 166 156 161 168 166 169 174 164
149 177 242 187 106 96 155 151 107 125 154 285 297 264 244 220 191 183 179 183 187 184 181 180 182 183 183 180 178 173 169 170 174 172 174 174 174 167 164 158 163 167 165 142
134 144 270 143 182 197 151 137 131 137 164 165 257 275 237 207 195 186 188 188 185 184 185 185 185 185 182 176 173 174 174 169 171 173 174 165 170 165 159 163 171 170 160 149
144 124 196 249 247 186 178 181 156 156 224 184 189 269 281 197 183 177 183 186 185 183 183 181 179 176 177 178 178 180 180 178 181 179 172 170 168 162 164 174 177 167 160 158
137 116 87 351 338 278 224 207 174 152 141 165 183 267 316 148 162 174 174 179 179 175 174 172 170 175 181 183 183 186 187 188 183 176 172 171 170 169 176 180 172 161 156 151
123 124 161 193 218 211 232 231 194 153 169 214 221 241 280 196 178 182 179 178 174 176 176 175 180 185 186 186 187 189 193 188 181 177 175 178 182 183 182 176 167 162 155 152
116 160 210 232 240 210 219 225 214 199 194 196 230 223 237 211 191 187 181 176 171 178 183 184 186 188 189 188 190 192 193 189 181 176 180 186 186 181 171 168 168 164 159 159
122 162 205 286 272 243 239 237 224 221 218 215 220 246 240 211 171 172 175 171 177 188 193 191 188 186 189 191 192 191 191 188 177 179 188 181 175 172 172 174 168 164 165 159
152 148 142 269 296 37 273 237 218 215 215 192 208 229 208 163 179 187 185 180 187 193 191 189 192 193 195 194 190 192 191 179 174 181 183 178 174 173 177 177 167 171 170 158
154 144 149 199 37 234 250 248 203 192 231 207 196 200 184 182 185 181 178 181 189 190 188 190 192 195 195 190 187 181 173 172 177 182 183 181 177 180 177 169 172 175 165 163
161 149 141 142 189 274 291 285 190 167 264 269 186 181 166 140 95 30 210 185 189 190 189 192 191 188 186 184 180 167 168 172 176 186 192 190 182 179 177 180 183 178 166 170
116 121 131 140 167 228 251 270 220 114 317 299 171 157 148 120 125 237 227 189 190 189 186 185 177 169 176 184 171 168 176 179 191 196 195 188 182 181 186 190 187 176 173 185
124 105 146 165 200 252 253 268 100 138 221 255 156 146 147 160 188 201 178 174 178 176 179 171 166 176 187 178 168 176 182 197 202 189 179 176 179 185 187 185 180 174 176 177
183 175 187 158 183 246 259 136 159 199 197 179 147 142 145 159 154 148 156 166 161 163 163 161 168 183 183 172 171 181 197 202 181 169 172 178 181 184 179 169 174 173 173 179
187 189 184 185 207 236 236 180 183 159 151 155 147 149 139 135 145 153 155 159 160 159 166 167 171 175 179 180 179 189 200 178 166 168 178 182 180 182 171 171 176 174 177 187
262 160 136 175 249 235 162 130 133 150 149 150 144 140 133 141 152 152 155 157 159 160 161 157 154 165 185 192 190 191 181 167 163 172 181 181 180 182 178 178 181 183 191 198
224 141 129 176 232 80 358 130 148 118 111 112 112 122 138 135 145 158 163 169 171 169 165 157 164 177 190 185 186 179 169 164 169 176 179 182 184 184 187 193 199 199 208 204
215 171 166 204 207 180 216 224 150 127 126 130 121 103 115 140 155 159 171 177 169 167 162 159 165 173 180 175 180 179 172 169 171 178 182 184 184 184 185 190 225 242 228 226
Height
1520 1525 1530 1529 1527 1529 1532 1537 1541 1540 1536 1537 1539 1541 1540 1541 1542 1544 1546 1547 1548 1550 1553 1554 1556 1557 1558 1559 1560 1561 1562 1562 1562 1562 1562 1561 1561 1561 1560 1559 1559 1558 1556 1555
1525 1529 1525 1523 1525 1528 1531 1538 1541 1540 1537 1538 1541 1542 1540 1540 1541 1542 1544 1546 1547 1550 1552 1554 1555 1556 1558 1559 1560 1561 1562 1562 1562 1562 1562 1562 1561 1561 1561 1560 1559 1558 1557 1556
1527 1526 1522 1524 1527 1530 1533 1537 1539 1541 1539 1538 1542 1546 1542 1540 1540 1542 1543 1544 1546 1548 1550 1552 1554 1555 1557 1558 1560 1561 1561 1562 1562 1562 1562 1562 1562 1561 1561 1560 1560 1559 1558 1557
1525 1523 1523 1525 1528 1528 1536 1530 1533 1538 1545 1550 1546 1557 1545 1540 1539 1539 1540 1542 1544 1546 1548 1550 1552 1554 1556 1557 1559 1560 1561 1562 1562 1562 1562 1562 1562 1561 1561 1560 1560 1559 1559 1558
1526 1523 1524 1527 1526 1525 1530 1528 1533 1537 1544 1550 1548 1554 1547 1538 1540 1537 1536 1538 1541 1543 1546 1548 1550 1552 1554 1556 1558 1559 1560 1561 1561 1562 1562 1562 1561 1561 1561 1560 1560 1560 1559 1559
1522 1522 1522 1523 1523 1524 1527 1533 1538 1542 1548 1557 1549 1553 1549 1538 1531 1530 1532 1534 1537 1540 1543 1546 1549 1551 1553 1555 1557 1558 1559 1560 1560 1561 1561 1561 1561 1561 1561 1560 1560 1560 1559 1559
1527 1524 1522 1522 1526 1528 1530 1544 1557 1559 1562 1558 1543 1546 1541 1524 1520 1522 1525 1529 1533 1537 1540 1543 1546 1549 1551 1553 1555 1556 1557 1558 1559 1559 1560 1560 1560 1560 1560 1560 1560 1559 1559 1559
1536 1537 1524 1521 1524 1530 1531 1539 1556 1563 1563 1555 1544 1545 1529 1514 1514 1517 1521 1526 1530 1534 1537 1540 1543 1546 1548 1551 1553 1554 1555 1556 1557 1558 1558 1559 1559 1559 1559 1559 1559 1559 1559 1559
1533 1533 1519 1518 1519 1523 1532 1537 1538 1548 1550 1555 1549 1537 1522 1513 1514 1517 1520 1524 1527 1530 1534 1537 1541 1544 1546 1548 1550 1552 1553 1555 1556 1556 1557 1558 1558 1558 1558 1558 1558 1559 1559 1559
1521 1529 1521 1518 1519 1522 1525 1530 1541 1548 1556 1560 1548 1539 1533 1519 1517 1517 1519 1521 1524 1528 1532 1535 1538 1541 1544 1546 1548 1550 1552 1553 1554 1555 1555 1556 1557 1557 1557 1558 1558 1558 1558 1558
1516 1528 1526 1521 1524 1527 1528 1530 1536 1544 1547 1556 1556 1544 1515 1513 1512 1514 1516 1518 1521 1525 1528 1532 1535 1539 1541 1544 1546 1548 1549 1551 1552 1553 1554 1554 1555 1556 1556 1556 1556 1557 1557 1558
1515 1527 1533 1526 1517 1516 1520 1524 1532 1545 1546 1545 1550 1540 1507 1507 1508 1511 1514 1517 1520 1523 1526 1529 1533 1536 1539 1541 1543 1545 1547 1549 1550 1552 1552 1553 1554 1554 1554 1555 1555 1556 1556 1557
1513 1526 1538 1536 1530 1521 1520 1519 1522 1530 1538 1543 1547 1536 1508 1507 1508 1510 1513 1515 1518 1521 1525 1528 1531 1534 1536 1539 1541 1543 1545 1547 1548 1550 1551 1551 1552 1552 1553 1553 1554 1555 1556 1556
1508 1521 1531 1537 1531 1523 1521 1517 1517 1526 1538 1538 1533 1526 1513 1510 1510 1510 1512 1514 1517 1520 1523 1525 1528 1531 1534 1536 1539 1541 1543 1545 1546 1547 1548 1549 1550 1551 1552 1552 1553 1554 1555 1555
1507 1519 1518 1517 1513 1514 1515 1514 1514 1518 1522 1528 1522 1519 1512 1508 1507 1508 1510 1513 1515 1518 1521 1523 1525 1528 1531 1534 1536 1538 1540 1542 1544 1545 1546 1547 1549 1550 1550 1551 1552 1553 1553 1554
1507 1514 1515 1516 1509 1510 1512 1510 1510 1511 1512 1514 1514 1514 1504 1504 1505 1507 1509 1511 1513 1515 1517 1520 1523 1525 1528 1530 1533 1535 1537 1539 1541 1542 1544 1545 1547 1547 1548 1549 1550 1551 1552 1553
1509 1514 1520 1525 1514 1513 1519 1508 1506 1506 1504 1506 1512 1508 1501 1504 1504 1505 1506 1508 1510 1512 1515 1517 1520 1522 1525 1527 1530 1532 1535 1537 1539 1540 1542 1543 1544 1545 1546 1548 1549 1549 1550 1551
1506 1514 1522 1525 1520 1528 1513 1496 1497 1500 1500 1499 1498 1498 1498 1499 1500 1502 1504 1506 1508 1510 1512 1515 1517 1520 1523 1525 1527 1530 1532 1534 1536 1537 1539 1541 1542 1543 1544 1546 1547 1548 1549 1549
1497 1508 1520 1527 1528 1521 1506 1495 1495 1499 1502 1497 1497 1497 1497 1498 1501 1504 1504 1505 1506 1508 1511 1513 1515 1518 1520 1522 1525 1527 1529 1531 1533 1534 1536 1538 1539 1541 1542 1543 1544 1545 1546 1547
1497 1501 1515 1523 1525 1527 1508 1493 1490 1496 1506 1496 1494 1495 1497 1498 1506 1505 1503 1505 1506 1507 1509 1511 1514 1516 1518 1520 1522 1524 1526 1528 1529 1531 1533 1535 1537 1538 1539 1540 1542 1543 1544 1545
1504 1508 1514 1520 1522 1515 1496 1490 1492 1508 1507 1495 1493 1493 1495 1497 1499 1500 1501 1503 1504 1506 1508 1510 1512 1513 1515 1518 1520 1521 1523 1524 1526 1529 1531 1532 1534 1535 1536 1538 1539 1540 1541 1542
1503 1509 1513 1518 1521 1515 1490 1490 1495 1496 1492 1493 1493 1493 1494 1496 1497 1499 1500 1502 1503 1504 1506 1508 1509 1511 1513 1515 1517 1518 1519 1521 1524 1526 1528 1529 1531 1532 1533 1534 1535 1537 1538 1538
1496 1496 1499 1502 1502 1491 1487 1487 1488 1489 1490 1492 1492 1493 1494 1495 1497 1498 1499 1500 1501 1503 1504 1506 1507 1509 1511 1513 1514 1515 1517 1519 1521 1523 1524 1526 1527 1529 1530 1531 1532 1533 1534 1535
1489 1487 1492 1494 1491 1488 1487 1487 1488 1489 1490 1491 1492 1493 1494 1494 1496 1497 1498 1499 1500 1501 1503 1504 1506 1507 1509 1510 1512 1513 1515 1516 1518 1519 1521 1522 1524 1525 1526 1527 1529 1529 1530 1530
1485 1485 1489 1492 1489 1488 1487 1487 1488 1489 1490 1490 1491 1492 1493 1494 1495 1496 1496 1497 1499 1500 1501 1502 1504 1505 1506 1508 1509 1511 1512 1514 1515 1516 1517 1519 1520 1521 1522 1523 1524 1525 1526 1527
1482 1483 1487 1488 1484 1485 1486 1486 1486 1487 1488 1489 1490 1491 1492 1493 1493 1494 1495 1496 1497 1498 1499 1500 1501 1503 1504 1505 1506 1508 1509 1510 1511 1512 1514 1515 1516 1517 1518 1519 1520 1520 1521 1522